Hourly Data Report for October 02, 2016

All times are specified in Local Standard Time (LST). Add 1 hour to adjust for Daylight Saving Time where and when it is observed.

KUGAARUK CLIMATE
NUNAVUT

68°32'15.060" N
89°47'47.020" W
15.80 m
2303094
71407
NBB

Download Data

Hourly Data (October 2016)
Hourly Data Report for October 2, 2016
Temp Definition
°C
Dew Point Temp Definition
°C
Rel Hum Definition
%
Wind Dir Definition
10's deg

Wind Spd Definition
km/h
Visibility Definition
km
Stn Press Definition
kPa
Hmdx Definition


Wind Chill Definition


Weather Definition


TIME
00:00 -1.5 -3.3 87 31 17   102.24   -7 LegendNANA
01:00 -1.4 -3.9 83 30 15   102.27   -6 LegendNANA
02:00 -1.7 -4.3 82 31 15   102.29   -7 LegendNANA
03:00 -1.9 -4.4 83 30 16   102.29   -7 LegendNANA
04:00 -2.1 -4.4 84 28 21   102.29   -8 LegendNANA
05:00 -3.2 -4.9 88 27 25   102.27   -10 LegendNANA
06:00 -3.0 -5.1 85 29 21   102.21   -9 LegendNANA
07:00 -2.7 -5.5 81 29 21   102.18   -9 LegendNANA
08:00 -2.4 -5.8 77 28 18   102.16   -8 LegendNANA
09:00 -1.4 -5.9 71 27 22   102.15   -7 LegendNANA
10:00 -1.1 -5.4 73 28 29   102.13   -8 LegendNANA
11:00 -1.4 -4.6 79 27 34   102.12   -9 LegendNANA
12:00 -1.0 -4.2 79 28 32   102.04   -8 LegendNANA
13:00 -0.5 -4.5 74 27 30   101.99   -7 LegendNANA
14:00 -0.1 -5.1 69 27 28   101.96   -6 LegendNANA
15:00 -0.2 -5.3 69 27 27   101.88   -6 LegendNANA
16:00 -0.6 -4.9 72 27 28   101.84   -7 LegendNANA
17:00 -0.7 -4.4 76 26 28   101.78   -7 LegendNANA
18:00 -1.1 -4.2 79 25 22   101.72   -7 LegendNANA
19:00 -1.5 -3.9 84 25 21   101.61   -7 LegendNANA
20:00 -1.8 -4.0 85 24 26   101.57   -8 LegendNANA
21:00 -2.1 -4.9 81 23 24   101.49   -8 LegendNANA
22:00 -2.7 -4.6 87 22 21   101.42   -9 LegendNANA
23:00 -1.8 -4.3 83 24 28   101.34   -9 LegendNANA

Notes on Data Quality.

Legend

  • E = Estimated
  • M = Missing
  • NA = Not Available
  • ‡ = Partner data that is not subject to review by the National Climate Archives
Date modified: